Weather History for Vernal, UT

Change the Weather History Date:

Thursday, January 31, 2013

  Actual Average Record
Temperature  
Mean Temperature 22 °F 21 °F  
Max Temperature 37 °F 30 °F 52 °F (1971)
Min Temperature 7 °F 11 °F -24 °F (1979)
Degree Days  
Heating Degree Days 43 44  
Month to date heating degree days 1871 1419  
Since 1 July heating degree days 4559 4395  
Cooling Degree Days 0 0  
Month to date cooling degree days 0 0  
Year to date cooling degree days 0 0  
Moisture  
Dew Point 14 °F    
Average Humidity 72    
Maximum Humidity 91    
Minimum Humidity 52    
Precipitation  
Precipitation 0.00 in 0.01 in 0.45 in (1939)
Month to date precipitation 0.87 0.50  
Year to date precipitation 0.87 0.50  
Sea Level Pressure  
Sea Level Pressure 30.38 in    
Wind  
Wind Speed 3 mph (WNW)    
Max Wind Speed 9 mph    
Max Gust Speed 10 mph    
Visibility 10 miles    
Events      
T = Trace of Precipitation, MM = Missing Value Source: NWS Daily Summary

Daily Weather History Graph

Daily Weather History Graph

Search for Another Location

Airport:

Trip Planner

Search our weather history database for the weather conditions in past years. The results will help you decide how hot, cold, wet, or windy it might be!

Date:

Astronomy

Jan. 31, 2013 Rise Set
Actual Time 7:28 AM MST 5:35 PM MST
Civil Twilight 6:59 AM MST 6:04 PM MST
Nautical Twilight 6:26 AM MST 6:37 PM MST
Astronomical Twilight 5:54 AM MST 7:09 PM MST
Moon 10:42 PM MST (1/31) 9:28 AM MST (1/31)
Length of Visible Light 11h 05m
Length of Day
10h 07m
Waning Gibbous, 79% of the Moon is Illuminated
Jan 31
Waning Gibbous
Feb 3
Last Quarter
Feb 10
New
Feb 17
First Quarter
Feb 25
Full

Hourly Weather History & Observations

Time (MST) Temp. Windchill Dew Point Humidity Pressure Visibility Wind Dir Wind Speed Gust Speed Precip Events Conditions
12:53 AM 16.0 °F 5.3 °F 10.0 °F 77% 30.26 in 10.0 mi West 8.1 mph - N/A   Mostly Cloudy
1:53 AM 14.0 °F 8.2 °F 10.0 °F 84% 30.29 in 10.0 mi NNW 3.5 mph - N/A   Clear
2:53 AM 12.9 °F 2.6 °F 9.0 °F 84% 30.30 in 10.0 mi West 6.9 mph - N/A   Clear
3:53 AM 9.0 °F - 6.1 °F 88% 30.31 in 10.0 mi Calm Calm - N/A   Clear
4:53 AM 10.0 °F 0.4 °F 6.1 °F 84% 30.35 in 10.0 mi NW 5.8 mph - N/A   Clear
5:53 AM 10.9 °F 0.2 °F 7.0 °F 84% 30.36 in 10.0 mi West 6.9 mph - N/A   Clear
6:53 AM 12.0 °F 1.5 °F 8.1 °F 84% 30.40 in 10.0 mi West 6.9 mph - N/A   Clear
7:53 AM 12.0 °F 2.7 °F 7.0 °F 80% 30.43 in 10.0 mi WNW 5.8 mph - N/A   Clear
8:53 AM 19.9 °F 13.4 °F 14.0 °F 78% 30.42 in 10.0 mi West 4.6 mph - N/A   Clear
9:53 AM 24.1 °F - 16.0 °F 71% 30.43 in 10.0 mi Calm Calm - N/A   Clear
10:53 AM 30.0 °F - 18.0 °F 61% 30.43 in 10.0 mi Calm Calm - N/A   Clear
11:53 AM 33.1 °F 30.0 °F 19.0 °F 56% 30.40 in 10.0 mi East 3.5 mph - N/A   Clear
12:53 PM 36.0 °F - 19.0 °F 50% 30.36 in 10.0 mi Calm Calm - N/A   Clear
1:53 PM 36.0 °F 32.1 °F 19.9 °F 52% 30.35 in 10.0 mi North 4.6 mph - N/A   Clear
2:53 PM 34.0 °F - 21.0 °F 59% 30.35 in 10.0 mi Calm Calm - N/A   Scattered Clouds
3:53 PM 34.0 °F - 21.0 °F 59% 30.36 in 10.0 mi Calm Calm - N/A   Clear
4:53 PM 34.0 °F - 19.9 °F 56% 30.36 in 10.0 mi Calm Calm - N/A   Clear
5:53 PM 28.0 °F 24.2 °F 19.0 °F 69% 30.39 in 10.0 mi West 3.5 mph - N/A   Clear
6:53 PM 23.0 °F - 17.1 °F 78% 30.42 in 10.0 mi Calm Calm - N/A   Clear
7:53 PM 19.0 °F - 14.0 °F 81% 30.45 in 10.0 mi Calm Calm - N/A   Mostly Cloudy
8:53 PM 21.9 °F - 17.1 °F 82% 30.43 in 10.0 mi Calm Calm - N/A   Overcast
9:53 PM 19.9 °F - 16.0 °F 85% 30.41 in 10.0 mi Calm Calm - N/A   Mostly Cloudy
10:53 PM 17.1 °F 8.7 °F 12.9 °F 84% 30.39 in 9.0 mi West 5.8 mph - N/A   Clear
11:53 PM 15.1 °F 7.7 °F 10.9 °F 84% 30.38 in 10.0 mi North 4.6 mph - N/A   Clear